New Paris, IN

12:14 AM EST on January 24, 2017 (GMT -0500)
Goshen Municipal

Weather History for KGSH - May, 2012

Change the Weather History Date:

Saturday, May 19, 2012

  Actual Average Record
Temperature  
Mean Temperature 71 °F -  
Max Temperature 88 °F 72 °F 92 °F (1977)
Min Temperature 54 °F 51 °F 30 °F (2002)
Cooling Degree Days 6    
Growing Degree Days 21 (Base 50)    
Moisture  
Dew Point 47 °F    
Average Humidity 42    
Maximum Humidity 67    
Minimum Humidity 22    
Precipitation  
Precipitation 0.00 in - - ()
Sea Level Pressure  
Sea Level Pressure 30.08 in    
Wind  
Wind Speed 4 mph (SE)    
Max Wind Speed 14 mph    
Max Gust Speed 18 mph    
Visibility 10 miles    
Events      
Averages and records for this station are not official NWS values.
T = Trace of Precipitation, MM = Missing Value Source: NWS Daily Summary

Daily Weather History Graph

Daily Weather History Graph

Search for Another Location

Airport or City:

Trip Planner

Search our weather history database for the weather conditions in past years. The results will help you decide how hot, cold, wet, or windy it might be!

Date:

Astronomy

May. 19, 2012 Rise Set
Actual Time 6:19 AM EDT 9:00 PM EDT
Civil Twilight 5:47 AM EDT 9:32 PM EDT
Nautical Twilight 5:07 AM EDT 10:12 PM EDT
Astronomical Twilight 4:22 AM EDT 10:58 PM EDT
Moon 5:22 AM EDT (5/19) 8:03 PM EDT (5/19)
Length of Visible Light 15h 44m
Length of Day
14h 40m
Waning Crescent, 2% of the Moon is Illuminated
May 19
Waning Crescent
May 20
New
May 28
First Quarter
Jun 4
Full
Jun 11
Last Quarter

Hourly Weather History & Observations

Time (EDT) Temp. Heat Index Dew Point Humidity Pressure Visibility Wind Dir Wind Speed Gust Speed Precip Events Conditions
12:53 AM 57.9 °F - 42.1 °F 56% 30.07 in 10.0 mi Calm Calm - N/A   Clear
1:53 AM 59.0 °F - 42.1 °F 53% 30.07 in 10.0 mi ESE 6.9 mph - N/A   Clear
2:53 AM 57.0 °F - 41.0 °F 55% 30.07 in 10.0 mi Calm Calm - N/A   Clear
3:53 AM 57.0 °F - 41.0 °F 55% 30.07 in 10.0 mi SE 3.5 mph - N/A   Clear
4:53 AM 55.9 °F - 42.1 °F 60% 30.08 in 10.0 mi Calm Calm - N/A   Clear
5:53 AM 54.0 °F - 43.0 °F 66% 30.08 in 10.0 mi SE 4.6 mph - N/A   Clear
6:53 AM 55.0 °F - 44.1 °F 67% 30.09 in 10.0 mi Calm Calm - N/A   Clear
7:53 AM 60.1 °F - 46.0 °F 60% 30.10 in 10.0 mi ESE 4.6 mph - N/A   Clear
8:53 AM 66.9 °F - 48.9 °F 52% 30.11 in 10.0 mi SSE 4.6 mph - N/A   Clear
9:53 AM 73.9 °F - 50.0 °F 43% 30.12 in 10.0 mi South 5.8 mph - N/A   Clear
10:53 AM 79.0 °F - 52.0 °F 39% 30.12 in 10.0 mi Variable 4.6 mph - N/A   Clear
11:53 AM 82.0 °F 81.3 °F 54.0 °F 38% 30.12 in 10.0 mi SSE 4.6 mph - N/A   Clear
12:53 PM 82.9 °F 81.8 °F 53.1 °F 36% 30.11 in 10.0 mi SSW 5.8 mph - N/A   Clear
1:53 PM 84.9 °F - 51.1 °F 31% 30.09 in 10.0 mi SSE 9.2 mph - N/A   Clear
2:53 PM 86.0 °F - 46.9 °F 26% 30.09 in 10.0 mi SSE 8.1 mph - N/A   Clear
3:53 PM 87.1 °F - 46.9 °F 25% 30.07 in 10.0 mi SE 13.8 mph 18.4 mph N/A   Clear
4:53 PM 88.0 °F - 45.0 °F 22% 30.06 in 10.0 mi SE 8.1 mph - N/A   Clear
5:53 PM 88.0 °F - 46.9 °F 24% 30.05 in 10.0 mi SE 9.2 mph - N/A   Clear
6:53 PM 87.1 °F - 48.9 °F 27% 30.04 in 10.0 mi SE 9.2 mph - N/A   Clear
7:53 PM 84.0 °F - 48.0 °F 28% 30.04 in 10.0 mi SE 6.9 mph - N/A   Clear
8:53 PM 78.1 °F - 48.0 °F 35% 30.04 in 10.0 mi ESE 6.9 mph - N/A   Clear
9:53 PM 75.0 °F - 46.0 °F 36% 30.06 in 10.0 mi ESE 5.8 mph - N/A   Clear
10:53 PM 72.0 °F - 46.0 °F 40% 30.07 in 10.0 mi ESE 8.1 mph - N/A   Clear
11:53 PM 71.1 °F - 45.0 °F 39% 30.07 in 10.0 mi SE 8.1 mph - N/A   Clear